#timestamp,LO_Frequency,Hit,StdDev 
1543557615.4,286047006.8,N
1543557635.3,286047007.0,N
1543557655.1,286047004.6,N
1543557675.9,286047008.5,Y
1543557695.7,286047003.7,P
1543557715.5,286047003.6,P
1543557735.4,286047006.2,P
1543557755.2,286047009.8,Y
1543557775.0,286047005.0,P
1543557775.9,286047005.0,P
1543557795.8,286047010.5,P
1543557815.6,286047009.4,Y
1543557835.5,286047005.0,P
1543557855.3,286047005.9,P
1543557875.1,286047005.4,P
1543557895.9,286047004.0,Y
1543557915.7,286046995.9,P
1543557935.5,286046994.6,N
1543557955.4,286046992.4,N
1543557975.2,286046990.7,N
1543557995.1,286046990.8,N
1543557996.0,286046990.8,N
1543558015.8,286046989.4,N
1543558035.6,286046988.8,N
1543558055.5,286046991.2,N
1543558075.3,286046988.6,N
1543558095.1,286046989.4,N
1543558115.9,286046987.4,N
1543558135.7,286046990.0,N
1543558155.6,286046987.4,N
1543558175.4,286046988.4,N
1543558195.2,286046986.5,Y
1543558215.1,286046993.8,P
1543558216.0,286046993.8,P
1543558235.8,286046994.7,P
1543558255.7,286046994.4,Y
1543558275.5,286047000.6,P
1543558295.3,286047000.6,N
1543558315.2,286047000.0,N
1543558335.0,286047002.8,N
1543558335.9,286047002.8,N
1543558355.7,286047000.2,N
1543558375.6,286046999.9,N
1543558395.4,286047000.8,N
1543558415.3,286046998.1,N
1543558435.1,286046998.9,N
1543558455.8,286046996.9,N
1543558475.7,286046997.5,N
1543558495.5,286046997.9,N
1543558515.4,286046997.9,N
1543558535.2,286046995.2,N
1543558555.0,286046997.0,N
1543558555.9,286046997.0,N
1543558575.8,286046996.5,N
1543558595.6,286046996.9,N
1543558615.4,286046999.6,N
1543558635.3,286046996.6,N
1543558655.1,286046997.4,N
1543558675.9,286046997.2,N
1543558695.7,286046999.5,N
1543558715.5,286046999.1,N
1543558735.4,286046999.5,N
1543558755.2,286046996.7,N
1543558775.1,286046997.4,N
1543558776.0,286046997.4,N
1543558795.8,286046997.3,N
1543558815.6,286046997.2,N
1543558835.5,286046997.5,N
1543558855.3,286046997.6,N
1543558875.1,286046997.2,N
1543558895.9,286046995.1,Y
1543558915.7,286046999.3,P
1543558935.6,286046998.6,N
1543558955.4,286046998.7,N
1543558975.2,286046998.6,Y
1543558995.1,286047000.3,P
1543558996.0,286047000.3,N
1543559015.8,286047001.4,N
1543559035.7,286047004.2,Y
1543559055.5,286047004.3,P
1543559075.3,286047001.8,N
1543559095.2,286047003.5,N
1543559115.0,286047005.8,Y
1543559115.9,286047005.8,P
1543559135.8,286046999.7,N
1543559185.6,286047000.0,E
1543559195.5,286046998.6,N
1543559215.4,286047000.8,P
1543559235.2,286047001.2,N
1543559255.1,286047000.3,N
1543559256.0,286047000.3,N
1543559275.8,286047000.1,N
1543559295.6,286046998.9,N
1543559315.5,286046999.4,N
1543559335.3,286046996.9,Y
1543559355.1,286046997.2,P
1543559375.9,286046996.9,N
1543559395.7,286046997.3,N
1543559415.6,286046995.0,Y
1543559435.4,286046996.9,P
1543559455.2,286046996.7,P
1543559475.1,286046996.6,P
1543559476.0,286046996.6,Y
1543559495.8,286047001.7,P
1543559515.7,286047005.6,N
1543559535.5,286047009.6,N
1543559555.3,286047009.8,N
1543559575.2,286047012.1,N
1543559595.9,286047012.3,N
1543559615.7,286047010.3,N
1543559635.6,286047008.3,N
1543559655.4,286047006.6,N
1543559675.3,286047007.3,N
1543559695.1,286047007.2,N
1543559696.0,286047007.2,N
1543559715.8,286047005.4,N
1543559735.7,286047007.2,N
1543559755.5,286047013.6,Y
1543559775.3,286047007.3,P
1543559795.2,286047008.3,P
1543559815.0,286047008.7,P
1543559815.9,286047008.7,Y
1543559835.8,286047000.9,P
1543559855.6,286046996.9,N
1543559875.4,286046998.7,N
1543559895.3,286046999.4,N
1543559915.1,286046999.5,N
1543559935.8,286046995.3,N
1543559955.7,286046997.9,N
1543559975.5,286047000.5,N
1543559995.4,286047003.6,N
1543560015.2,286047005.5,N
1543560035.0,286047005.5,N
1543560035.9,286047005.5,N
1543560055.8,286047005.1,N
1543560075.6,286047004.7,N
1543560095.4,286047006.3,N
1543560115.3,286047012.4,Y
1543560135.1,286047008.1,P
1543560155.9,286047010.5,P
1543560175.7,286047011.2,P
1543560195.5,286047014.3,Y
1543560215.4,286047007.3,P
1543560235.2,286047005.3,P
1543560255.0,286047001.7,N
1543560256.0,286047001.7,N
1543560275.8,286047001.9,N
1543560295.6,286046999.7,N
1543560315.5,286047003.1,N
1543560335.3,286047007.0,N
1543560355.1,286047005.3,N
1543560375.9,286047001.8,N
1543560395.7,286047000.3,N
1543560415.5,286046999.1,N
1543560435.4,286046995.0,N
1543560455.2,286046995.8,N
1543560475.1,286046994.7,N
1543560476.0,286046994.7,N
1543560495.8,286046993.0,N
1543560515.6,286046991.0,N
1543560535.5,286046988.7,N
1543560555.3,286046988.7,N
1543560575.1,286046989.3,N
1543560595.9,286046987.3,N
1543560615.7,286046987.4,N
1543560635.6,286046986.0,N
1543560655.4,286046986.2,N
1543560675.2,286046985.5,N
1543560695.1,286046986.8,N
1543560696.0,286046986.8,N
1543560715.8,286046984.2,N
1543560735.6,286046984.1,N
1543560755.5,286046984.5,N
1543560775.3,286046982.3,N
1543560795.2,286046980.5,N
1543560815.9,286046980.7,N
1543560835.7,286046981.0,N
1543560855.6,286046981.1,N
1543560875.4,286046981.5,N
1543560895.2,286046981.5,N
1543560915.1,286046979.3,Y
1543560916.0,286046979.3,P
1543560935.8,286046990.4,N
1543560955.7,286046990.9,N
1543560975.5,286046991.0,N
1543560995.3,286046990.3,N
1543561015.2,286046994.7,N
1543561035.0,286046995.4,N
1543561035.9,286046995.4,N
1543561055.8,286046997.8,N
1543561075.6,286046996.9,N
1543561095.4,286046999.6,N
1543561115.3,286047002.7,N
1543561135.1,286047002.2,N
1543561155.8,286047005.6,N
1543561175.7,286047009.0,N
1543561195.5,286047007.6,N
